EW2769 Weather Reports


time (UTC)temp
C
wind
direction
speed
KPH
gust
KPH
rain 1hr
cm
rain 24hr
cm
rain mn
cm
humidity
%
barometer
mb
20260504173044 5 259 11.3 25.7 0.08 0.66 0.66 97 1003.5
20260504173003 6 285 3.2 14.5 0.13 0.46 0.46 100 1003.8
20260504171600 6 274 1.6 9.7 0.13 0.43 0.43 100 1003.8
20260504171539 4 250 8.0 12.9 0.10 0.64 0.64 96 1003.6
20260504081558 -17 0.0 0.0 0.00 0.00 0.00 1004.3
20260504081500 0 297 0.0 0.0 0.00 0.00 0.00 28 1005.7
20260504050004 1 328 0.0 0.0 0.00 0.00 0.00 63 1004.9
20260504044525 -17 0.0 0.0 0.00 0.00 0.00 1004.6
20260504044510 2 328 0.0 8.0 0.00 0.00 0.00 64 1004.9
20260504043011 -17 0.0 0.0 0.00 0.00 0.00 1004.7
20260504043007 2 326 0.0 6.4 0.00 0.00 0.00 64 1005.1
20260504041506 -17 0.0 0.0 0.00 0.00 0.00 1004.7
20260504041502 2 351 1.6 12.9 0.00 0.00 0.00 64 1005.0
20260504040057 -17 0.0 0.0 0.00 0.00 0.00 1004.7
20260504040002 2 340 1.6 8.0 0.00 0.00 0.00 63 1005.0
20260504034653 -17 0.0 0.0 0.00 0.00 0.00 1004.6
20260504034547 2 25 0.0 3.2 0.00 0.00 0.00 64 1005.0
20260504033048 -17 0.0 0.0 0.00 0.00 0.00 1004.7
20260504033043 1 344 0.0 0.0 0.00 0.00 0.00 63 1005.0
20260504031545 -17 0.0 0.0 0.00 0.00 0.00 1004.7
20260504031532 1 3 0.0 4.8 0.00 0.00 0.00 63 1005.0
20260504030039 -17 0.0 0.0 0.00 0.00 0.00 1004.7
20260504030036 1 321 0.0 0.0 0.00 0.00 0.00 63 1005.0
20260504024540 -17 0.0 0.0 0.00 0.00 0.00 1004.7
20260504024528 2 283 0.0 0.0 0.00 0.00 0.00 64 1005.1
20260504023024 2 283 0.0 0.0 0.00 0.00 0.00 64 1004.9
20260504023016 -17 0.0 0.0 0.00 0.00 0.00 1004.6
20260504021521 3 305 0.0 0.0 0.00 0.00 0.00 64 1005.0
20260504021512 -17 0.0 0.0 0.00 0.00 0.00 1004.6
20260504020027 3 287 0.0 0.0 0.00 0.00 0.00 63 1004.9
20260504020009 -17 0.0 0.0 0.00 0.00 0.00 1004.6
20260504014516 3 341 0.0 16.1 0.00 0.00 0.00 63 1004.9
20260504014502 -17 0.0 0.0 0.00 0.00 0.00 1004.6
20260504013123 -17 0.0 0.0 0.00 0.00 0.00 1004.5
20260504013019 4 266 1.6 12.9 0.00 0.00 0.00 62 1004.8
20260504011557 4 307 8.0 24.1 0.00 0.00 0.00 61 1004.7
20260504011555 -17 0.0 0.0 0.00 0.00 0.00 1004.4
20260504010101 5 299 9.7 22.5 0.00 0.00 0.00 60 1004.6
20260504010049 -17 0.0 0.0 0.00 0.00 0.00 1004.3
20260504004545 -17 0.0 0.0 0.00 0.00 0.00 1004.3
20260504003042 5 334 4.8 16.1 0.00 0.00 0.00 58 1004.4
20260504003025 -17 0.0 0.0 0.00 0.00 0.00 1004.3
20260504001541 5 14 8.0 24.1 0.00 0.00 0.00 58 1004.1
20260504001528 -17 0.0 0.0 0.00 0.00 0.00 1004.1
20260504000039 5 13 9.7 27.4 0.00 0.00 0.00 57 1004.0
20260504000016 -17 0.0 0.0 0.00 0.00 0.00 1004.1
20260503234541 5 357 9.7 19.3 0.00 0.00 0.00 56 1003.9
20260503234512 -17 0.0 0.0 0.00 0.00 0.00 1004.0
20260503233037 5 47 4.8 20.9 0.00 0.00 0.00 55 1003.8
20260503233012 -17 0.0 0.0 0.00 0.00 0.00 1004.0
20260503231536 5 350 6.4 22.5 0.00 0.00 0.00 54 1003.8
20260503231503 -17 0.0 0.0 0.00 0.00 0.00 1004.0
20260503230050 5 45 14.5 35.4 0.00 0.00 0.00 54 1003.6
20260503230006 3 302 12.9 24.1 0.00 0.00 0.00 59 1004.1
20260503224522 6 8 4.8 24.1 0.00 0.00 0.00 54 1003.7
20260503224501 3 295 11.3 20.9 0.00 0.00 0.00 60 1004.0
20260503223046 3 263 11.3 27.4 0.00 0.00 0.00 60 1003.9
20260503223021 6 1 11.3 25.7 0.00 0.00 0.00 54 1003.4
20260503221557 3 244 14.5 24.1 0.00 0.00 0.00 59 1003.8
20260503221522 6 337 9.7 22.5 0.00 0.00 0.00 54 1003.4
20260503220044 4 302 16.1 27.4 0.00 0.00 0.00 58 1003.8
20260503220029 6 261 12.9 33.8 0.00 0.00 0.00 53 1003.3
20260503214544 4 290 12.9 32.2 0.00 0.00 0.00 59 1003.8
20260503214529 6 43 8.0 19.3 0.00 0.00 0.00 52 1003.3
20260503213046 4 299 12.9 29.0 0.00 0.00 0.00 60 1003.9
20260503213029 6 348 12.9 35.4 0.00 0.00 0.00 51 1003.4
20260503211542 4 317 14.5 33.8 0.00 0.00 0.00 58 1003.9
20260503211518 7 5 12.9 33.8 0.00 0.00 0.00 48 1003.3
20260503210041 5 259 12.9 30.6 0.00 0.00 0.00 56 1003.8
20260503210019 7 348 4.8 25.7 0.00 0.00 0.00 47 1003.0
20260503204559 7 335 11.3 41.8 0.00 0.00 0.00 46 1003.1
20260503204546 5 278 12.9 29.0 0.00 0.00 0.00 56 1003.9
20260503203058 7 25 16.1 32.2 0.00 0.00 0.00 44 1003.2
20260503203034 5 323 8.0 27.4 0.00 0.00 0.00 53 1004.0
20260503201544 7 62 8.0 35.4 0.00 0.00 0.00 46 1003.2
20260503201526 5 316 11.3 22.5 0.00 0.00 0.00 51 1003.9
20260503200038 7 5 12.9 27.4 0.00 0.00 0.00 46 1003.3
20260503200027 6 281 9.7 22.5 0.00 0.00 0.00 51 1004.0
20260503194525 6 252 9.7 25.7 0.00 0.00 0.00 50 1004.1
20260503193038 6 308 16.1 30.6 0.00 0.00 0.00 51 1004.2
20260503193025 8 304 11.3 30.6 0.00 0.00 0.00 44 1003.4
20260503191551 6 306 16.1 33.8 0.00 0.00 0.00 50 1004.4
20260503191523 8 7 17.7 30.6 0.00 0.00 0.00 43 1003.4
20260503190031 8 320 12.9 30.6 0.00 0.00 0.00 44 1003.5
20260503190027 6 240 12.9 25.7 0.00 0.00 0.00 49 1004.2
20260503184522 6 306 12.9 24.1 0.00 0.00 0.00 48 1004.2
20260503183020 8 305 20.9 30.6 0.00 0.00 0.00 45 1003.4
20260503183007 6 306 12.9 27.4 0.00 0.00 0.00 47 1004.0
20260503181537 8 338 11.3 29.0 0.00 0.00 0.00 48 1003.4
20260503181507 7 254 11.3 29.0 0.00 0.00 0.00 46 1004.1
20260503180031 7 29 3.2 22.5 0.00 0.00 0.00 50 1003.7
20260503180006 6 279 11.3 29.0 0.00 0.00 0.00 47 1004.3
20260503174623 7 48 4.8 30.6 0.00 0.00 0.00 51 1003.7
20260503174503 6 315 14.5 24.1 0.00 0.00 0.00 49 1004.3